Regional Weather Roundup
Issued by NWS Wakefield, VA

Home | Current Version | Previous Version | Graphics & Text | Print | Product List | Glossary On
Versions: 1 2 3 4 5 6 7 8 9 10 11 12 13 14 15 16 17 18 19 20 21 22 23 24 25 26 27 28 29 30 31 32 33 34 35 36 37 38 39 40 41 42 43 44 45 46 47 48 49 50
000
ASUS41 KAKQ 190110
RWRAKQ

REGIONAL WEATHER ROUNDUP
NATIONAL WEATHER SERVICE WAKEFIELD VA
900 PM EDT THU SEP 18 2014

Note: "fair" indicates few or no clouds below 12,000 feet with no
significant weather and/or obstructions to visibility. * = Denotes
station may not report precipitation (e.g., rain,snow,etc.),
thunder or fog.

VAZ042-051-052>054-056-190200-
NORTHERN VIRGINIA

CITY           SKY/WX    TMP DP  RH WIND       PRES   REMARKS
WASH NATIONAL  PTCLDY    71  60  68 E3        30.07R
DULLES         MOCLDY    65  57  75 E6        30.06R
FORT BELVOIR   CLEAR     63  61  93 CALM      30.07R
QUANTICO       CLEAR     66  62  87 N9        30.07R
FREDERICKSBRG* MOCLDY    66  65  96 CALM      30.05R
STAFFORD*      PTCLDY    62  62 100 NW3       30.10R FOG
WARRENTON      PTCLDY    60  60 100 CALM      30.05R
CULPEPER*      CLOUDY    64  57  77 CALM      30.07R
MANASSAS*      PTCLDY    63  57  82 CALM      30.06R
LEESBURG*      CLEAR     64  55  72 NE3       30.07R
WINCHESTER     CLOUDY    63  50  63 CALM      30.08R
FRONT ROYAL*   CLOUDY    61  54  77 CALM      30.07R
LURAY*         MOCLDY    64  55  72 CALM      30.07R
$$

VAZ048-049-060>072-079>083-190200-
CENTRAL AND SOUTH CENTRAL VIRGINIA...AND NORTH CENTRAL NORTH CAROLINA

CITY           SKY/WX    TMP DP  RH WIND       PRES   REMARKS
RICHMOND       MOCLDY    67  60  78 E3        30.05R
CHESTERFIELD*  CLOUDY   N/A N/A N/A E3        30.06R
PETERSBURG*    CLOUDY    67  58  71 CALM      30.06R
HANOVER        CLOUDY    64  63  96 CALM      30.07R FOG
TAPPAHANNOCK*  CLEAR     62  59  91 CALM      30.06R FOG
CHARLOTTSVILLE CLOUDY    65  62  90 N3        30.06R
ORANGE*        CLOUDY    63  59  88 CALM      30.08R
LOUISA*        MOCLDY    63  61  94 E3        30.05R FOG
FARMVILLE*     CLOUDY    66  66 100 CALM      30.03R
CREWE*         CLOUDY    68  63  84 CALM      30.05R
FORT PICKETT*  CLOUDY    68  64  88 E6        30.05R
LUNENBURG*     CLOUDY    68  65  91 CALM      30.04R
SOUTH HILL*    CLOUDY    70  70 100 CALM      30.09R
LAWRENCEVILLE* CLOUDY    68  63  84 CALM      30.05R
ROANOKE RAPIDS CLOUDY    68  59  73 E5        30.05R
RALEIGH        CLOUDY    72  61  68 E5        30.02R
$$

VAZ088>098-190200-
SOUTHEAST VIRGINIA

CITY           SKY/WX    TMP DP  RH WIND       PRES   REMARKS
NORFOLK        CLOUDY    69  55  60 SE3       30.06R
VIRGINIA BEACH MOCLDY    66  56  70 SE5       30.05R
NORFOLK NAVAL  MOCLDY    69  55  60 SE6       30.07R
WEST POINT*    CLOUDY    71  56  60 E8        30.07R
NEWPORT NEWS   CLOUDY    73  57  57 E3        30.06R
LANGLEY AFB    CLOUDY    70  57  62 SE5       30.05R
FORT EUSTIS    CLOUDY    71  52  51 E5        30.04R
WILLIAMSBURG*  CLOUDY    70  61  73 E5        30.07R
HR EXEC AP*    PTCLDY    61  55  82 CALM      30.08R
FRANKLIN*      PTCLDY    66  57  72 E3        30.06R
WAKEFIELD      CLOUDY    68  57  68 VRB3      30.06R
$$

VAZ020-022-025-037-045-190200-
WEST CENTRAL AND SOUTHWEST VIRGINIA

CITY           SKY/WX    TMP DP  RH WIND       PRES   REMARKS
STAUNTON*      CLOUDY    63  56  79 CALM      30.09R
HOT SPRINGS VA CLOUDY    57  41  55 E3        30.16R
LYNCHBURG      CLOUDY    66  63  90 CALM      30.07R
DANVILLE       CLOUDY    70  64  81 CALM      30.03R
SOUTH BOSTON*  NOT AVBL
MARTINSVILLE   CLOUDY    67  67 100 CALM      30.07R
ROANOKE        CLOUDY    70  61  73 E3        30.07R
BLACKSBURG     CLOUDY    63  59  88 CALM      30.10R
DUBLIN*        CLOUDY    64  59  86 W3        30.10R
MARION*        CLOUDY    62  58  86 CALM      30.13R
HILLSVILLE*    CLOUDY    62  56  79 E3        30.10R
RICHLANDS*     CLOUDY    65  55  70 NE5       30.11R
WISE*          CLOUDY    61  52  72 CALM      30.12R
ABINGDON*      CLOUDY    65  56  73 CALM      30.08R
$$

MDZ021>025-VAZ099-100-190200-
SOUTHERN MARYLAND AND THE DELMARVA PENINSULA

CITY           SKY/WX    TMP DP  RH WIND       PRES   REMARKS
PATUXENT RIVER MOCLDY    63  55  75 CALM      30.05R
BAY BRIDGE APT   N/A     66  59  77 SE5       30.07R
LEONARDTOWN    CLOUDY    61  54  77 CALM      30.07R
DOVER          CLOUDY    66  56  72 W1        30.05R
GEORGETOWN     CLOUDY    65  58  78 SE3       30.07R
EASTON         MOCLDY    66  61  82 CALM      30.10R
CAMBRIDGE      CLOUDY    66  59  77 N5        30.07R
SALISBURY      CLOUDY    65  56  72 CALM      30.07R
OCEAN CITY     CLOUDY    61  56  83 CALM      30.07R
WALLOPS ISLAND CLEAR     66  58  75 S6        30.07R
ACCOMACK*      MOCLDY    61  55  82 S3        30.07R
$$

NCZ012>017-030>032-190200-
EASTERN NORTH CAROLINA

CITY           SKY/WX    TMP DP  RH WIND       PRES   REMARKS
ELIZABETH CITY CLEAR     66  58  75 E5        30.06R
AHOSKIE*       CLEAR     66  57  74 SE3       30.05R
EDENTON*       CLEAR     64  58  83 CALM      30.05R
CURRITUCK*     CLEAR     67  56  66 CALM      30.06R
KILL DEVIL HLS CLEAR     70  56  60 E5        30.04R
MANTEO         CLEAR     69  56  62 E8        30.06R
CAPE HATTERAS  CLEAR     67  56  67 NE7       30.04R
TARBORO*       PTCLDY    67  62  83 E3        30.05R
GOLDSBORO      PTCLDY    69  67  91 SE5       30.01R
WASHINGTON     CLEAR     65  57  73 CALM      30.04R
GREENVILLE     PTCLDY    68  59  73 E5        30.05R
NEW BERN       CLEAR     71  59  65 E6        30.04R
WILMINGTON     CLEAR     74  62  66 E9        30.01R
$$

VAZ048-190200-
ELSEWHERE

CITY           SKY/WX    TMP DP  RH WIND       PRES   REMARKS
HARRISBURG PA  CLEAR     59  51  75 CALM      30.07R
BALTIMORE      PTCLDY    62  59  90 CALM      30.06R
ANNAPOLIS      PTCLDY    67  63  87 CALM      30.06R
ANDREWS AFB    CLEAR     62  61  97 NW2       30.07R
WILMINGTON DE  CLEAR     63  58  83 CALM      30.07R
PHILADELPHIA   PTCLDY    67  55  65 SW8       30.06R
WILDWOOD NJ*   PTCLDY    64  54  68 CALM      30.07R
ATLANTIC CITY  CLEAR     62  56  80 CALM      30.06R
HENDERSON NC   MOCLDY    68  63  83 CALM      30.04R
GREENSBORO     CLOUDY    70  63  78 E5        30.03R
ROCKY MOUNT    PTCLDY    68  61  78 CALM      30.04R
FAYETTEVILLE   PTCLDY    71  64  78 CALM      30.01R
CHARLOTTE      CLOUDY    74  64  71 VRB6      30.01R
$$

VAZ100-190200-
MARINE

STATION/POSITION TIME  TEMP    WIND        PRES    WAVE   SWELL
                       AIR SEA DIR/SP/G            HT/PER HT/PER
                 (UTC) (F)     (DEG/KT/KT) (MB)    (FT/S) (FT/S)
44066 TX TWR #4  0100   69 73  360/  6/  8 1017.2R   3/11   3/11
CAPE MAY NJ      0100   69 76  180/  3/  5 1017.3R
LEWES DE         0100   68 73  230/  2/  3 1017.6R
15NM E FENWICK I 0100   70 73              1017.9R   3/11
OCEAN-CITY-INLET 0100   70 72  200/  4/  6 1017.6R
WACHAPREAGUE VA  0100   69 75  180/  2/  4 1018.0R
THOMAS POINT MD  0100   69 74  130/ 10/ 11 1019.1R
GOOSES REEF MD   0100   71     330/  8/ 14 1018.3R
COVE POINT MD    0100   69     220/  6/  7 1017.4R
SOLOMONS ISLAND  0100      76                N/A
BISHOPS HEAD MD  0100   72 75  170/ 12/ 13 1017.1R
PINEY POINT MD   0100          210/  9/ 10   N/A
POTOMAC MD       0100   72     210/ 10/ 12 1016.8R
CAMBRIDGE MD     0100   68 74   10/  6/  8 1017.9R
LEWISETTA VA     0100   69 74  210/  6/  7 1017.0S
RAPPAHANNOCK LGT 0100          120/  9/ 10 1018.3S
STINGRAY PT      0100   72     160/  8/ 12   N/A
YORK RVR RNG VA  0100   72     160/ 10/ 11 1017.3R
YORKTOWN VA      0100   71 77  150/  5/  5 1017.5R
JAMESTOWN VA     0100   71     120/  8/ 10   N/A
DOMINION TERM VA 0100   71     120/ 10/ 12 1017.6R
KIPTOPEKE VA     0100      79  120/  5/  6   N/A
CHES BAY BRIDGE  0100   71 75  110/  8/ 11 1017.3R
CAPE HENRY VA    0100   70     110/  9/ 12 1016.4R
CHESAPEAKE LGHT  0000   70     120/  8/ 10 1018.0R
WILLOUBY STN VA  0100   70      90/  3/  6 1016.4R
S CRANEY ISL VA  0100          100/  6/  8 1017.4R
CAPE HENRY BUOY  0000      75                N/A     3/13   2/13
1ST LANDING BUOY 0100   71     130/ 10/ 12 1017.2R
CAPE CHARLES BUO 0100      75                N/A     3/13   3/13
OFFSHORE WE BUOY 0100      74                N/A     3/13   3/13
64NM E OF VA BCH 0100   72 77   50/ 12/ 16 1017.1R   4/11   3/11
DUCK PIER NC     0100   71 75   60/ 11/ 13 1016.9R
44100 DUCK FRF   0100      75                N/A     4/13   2/13
44056 DUCK FRF   0100                        N/A     3/11   2/11
OREGON INLET NC  0100   71 74   40/ 10/ 12 1017.3R
HATTERAS NC      0100   71 77   70/  7/ 11 1017.5R
DIAMOND SHLS NC  0100   72      40/ 14/ 19 1016.3R   5/11   3/11
CAPE LOOKOUT NC  0000   74      50/ 18/ 20 1016.1R
$$



USA.gov is the U.S. government's official web portal to all federal, state and local government web resources and services.